Hourly Weather Otmichi

Today, 30 July, Friday

Time Temperature Precipitation Wind Pressure Humidity
00:00 +18°C° 0 mm 2 mps 741 mmHg 83%
01:00 +17°C° 0 mm 2 mps 741 mmHg 84%
02:00 +17°C° 0 mm 2 mps 741 mmHg 87%
03:00 +18°C° 0.1 mm 2 mps 741 mmHg 88%
04:00 +18°C° 0.1 mm 2 mps 741 mmHg 89%
05:00 +18°C° 0.1 mm 2 mps 741 mmHg 90%
06:00 +19°C° 0.1 mm 2 mps 741 mmHg 88%
07:00 +20°C° 0.1 mm 2 mps 741 mmHg 86%
08:00 +21°C° 0 mm 2 mps 741 mmHg 82%
09:00 +21°C° 0.3 mm 3 mps 741 mmHg 82%
10:00 +21°C° 0.3 mm 3 mps 741 mmHg 82%
11:00 +21°C° 0.3 mm 3 mps 741 mmHg 82%
12:00 +22°C° 0.7 mm 3 mps 741 mmHg 80%
13:00 +24°C° 0.7 mm 3 mps 741 mmHg 78%
14:00 +24°C° 0 mm 3 mps 741 mmHg 73%
15:00 +25°C° 0.2 mm 3 mps 740 mmHg 68%
16:00 +25°C° 0.2 mm 3 mps 740 mmHg 63%
17:00 +25°C° 0.2 mm 3 mps 740 mmHg 58%
18:00 +24°C° 0 mm 2 mps 740 mmHg 64%
19:00 +21°C° 0 mm 2 mps 740 mmHg 70%
20:00 +20°C° 0 mm 2 mps 740 mmHg 76%
21:00 +19°C° 0.1 mm 2 mps 740 mmHg 79%
22:00 +18°C° 0.1 mm 2 mps 740 mmHg 81%
23:00 +17°C° 0.1 mm 2 mps 740 mmHg 84%

Tomorrow, 31 July, Saturday

Time Temperature Precipitation Wind Pressure Humidity
00:00 +17°C° 0 mm 2 mps 740 mmHg 87%
01:00 +16°C° 0 mm 2 mps 740 mmHg 90%
02:00 +15°C° 0 mm 2 mps 740 mmHg 92%
03:00 +15°C° 0 mm 2 mps 739 mmHg 90%
04:00 +14°C° 0 mm 3 mps 739 mmHg 87%
05:00 +16°C° 0 mm 3 mps 739 mmHg 84%
06:00 +18°C° 0 mm 4 mps 739 mmHg 73%
07:00 +20°C° 0 mm 4 mps 739 mmHg 62%
08:00 +22°C° 0 mm 5 mps 739 mmHg 51%
09:00 +22°C° 0 mm 6 mps 740 mmHg 48%
10:00 +23°C° 0 mm 6 mps 740 mmHg 45%
11:00 +24°C° 0 mm 6 mps 740 mmHg 43%
12:00 +24°C° 0 mm 6 mps 740 mmHg 45%
13:00 +24°C° 0 mm 6 mps 740 mmHg 47%
14:00 +24°C° 0 mm 6 mps 741 mmHg 49%
15:00 +24°C° 0 mm 6 mps 741 mmHg 50%
16:00 +25°C° 0 mm 5 mps 741 mmHg 52%
17:00 +23°C° 0 mm 5 mps 741 mmHg 53%
18:00 +22°C° 0 mm 4 mps 741 mmHg 59%
19:00 +21°C° 0 mm 4 mps 742 mmHg 65%
20:00 +19°C° 0 mm 3 mps 742 mmHg 71%
21:00 +18°C° 0 mm 3 mps 742 mmHg 77%
22:00 +17°C° 0 mm 3 mps 743 mmHg 83%
23:00 +16°C° 0 mm 2 mps 743 mmHg 89%

Day after tomorrow, 1 August, Sunday

Time Temperature Precipitation Wind Pressure Humidity
00:00 +16°C° 0 mm 2 mps 743 mmHg 89%
01:00 +16°C° 0 mm 2 mps 743 mmHg 90%
02:00 +15°C° 0 mm 2 mps 743 mmHg 91%
03:00 +16°C° 0 mm 2 mps 744 mmHg 88%
04:00 +16°C° 0 mm 2 mps 744 mmHg 85%
05:00 +17°C° 0 mm 2 mps 744 mmHg 82%
06:00 +18°C° 0 mm 2 mps 744 mmHg 75%
07:00 +20°C° 0 mm 3 mps 744 mmHg 67%
08:00 +21°C° 0 mm 3 mps 744 mmHg 59%
09:00 +20°C° 0.6 mm 3 mps 744 mmHg 71%
10:00 +19°C° 0.6 mm 3 mps 744 mmHg 84%
11:00 +17°C° 0.6 mm 3 mps 744 mmHg 96%
12:00 +18°C° 1.2 mm 3 mps 744 mmHg 94%
13:00 +19°C° 1.2 mm 3 mps 744 mmHg 93%
14:00 +19°C° 1.2 mm 3 mps 743 mmHg 91%
15:00 +20°C° 0.1 mm 3 mps 743 mmHg 87%
16:00 +21°C° 0.1 mm 3 mps 743 mmHg 82%
17:00 +24°C° 0.1 mm 3 mps 743 mmHg 78%
18:00 +21°C° 0 mm 3 mps 743 mmHg 83%
19:00 +20°C° 0 mm 2 mps 743 mmHg 87%
20:00 +19°C° 0 mm 2 mps 743 mmHg 92%
21:00 +18°C° 0 mm 2 mps 743 mmHg 93%
22:00 +18°C° 0 mm 2 mps 743 mmHg 94%
23:00 +17°C° 0 mm 2 mps 744 mmHg 95%

2 August, Monday

Time Temperature Precipitation Wind Pressure Humidity
00:00 +17°C° 0 mm 2 mps 744 mmHg 93%
01:00 +16°C° 0 mm 2 mps 744 mmHg 91%
02:00 +16°C° 0 mm 1 mps 744 mmHg 89%
03:00 +16°C° 0 mm 1 mps 744 mmHg 87%
04:00 +16°C° 0 mm 1 mps 744 mmHg 85%
05:00 +18°C° 0 mm 1 mps 744 mmHg 83%
06:00 +20°C° 0 mm 1 mps 744 mmHg 74%
07:00 +22°C° 0 mm 1 mps 743 mmHg 65%
08:00 +24°C° 0 mm 2 mps 743 mmHg 56%
09:00 +26°C° 0 mm 2 mps 743 mmHg 51%
10:00 +27°C° 0 mm 2 mps 743 mmHg 46%
11:00 +29°C° 0 mm 3 mps 742 mmHg 41%
12:00 +29°C° 0 mm 3 mps 742 mmHg 41%
13:00 +30°C° 0 mm 4 mps 741 mmHg 41%
14:00 +30°C° 0 mm 4 mps 740 mmHg 41%
15:00 +30°C° 0.1 mm 4 mps 739 mmHg 46%
16:00 +29°C° 0.1 mm 4 mps 738 mmHg 52%
17:00 +28°C° 0.1 mm 4 mps 737 mmHg 58%
18:00 +25°C° 3 mm 4 mps 738 mmHg 69%
19:00 +22°C° 3 mm 4 mps 738 mmHg 81%
20:00 +19°C° 3 mm 4 mps 738 mmHg 92%
21:00 +18°C° 0.1 mm 4 mps 738 mmHg 93%
22:00 +18°C° 0.1 mm 4 mps 738 mmHg 94%
23:00 +17°C° 0.1 mm 5 mps 738 mmHg 95%

3 August, Tuesday

Time Temperature Precipitation Wind Pressure Humidity
00:00 +17°C° 0 mm 4 mps 739 mmHg 95%
01:00 +17°C° 0 mm 4 mps 739 mmHg 94%
02:00 +16°C° 0 mm 3 mps 739 mmHg 94%
03:00 +16°C° 0 mm 3 mps 740 mmHg 93%
04:00 +16°C° 0 mm 3 mps 740 mmHg 93%
05:00 +16°C° 0 mm 2 mps 741 mmHg 93%
06:00 +17°C° 0 mm 2 mps 741 mmHg 86%
07:00 +18°C° 0 mm 3 mps 741 mmHg 80%
08:00 +19°C° 0 mm 3 mps 742 mmHg 73%
09:00 +20°C° 0.2 mm 3 mps 742 mmHg 71%
10:00 +21°C° 0.2 mm 3 mps 742 mmHg 69%
11:00 +21°C° 0.2 mm 3 mps 742 mmHg 66%
12:00 +22°C° 0.5 mm 3 mps 742 mmHg 64%
13:00 +22°C° 0.5 mm 3 mps 742 mmHg 61%
14:00 +22°C° 0.5 mm 3 mps 742 mmHg 59%
15:00 +22°C° 0.1 mm 3 mps 743 mmHg 58%
16:00 +22°C° 0.1 mm 3 mps 743 mmHg 57%
17:00 +22°C° 0.1 mm 3 mps 743 mmHg 56%
18:00 +20°C° 0 mm 2 mps 743 mmHg 63%
19:00 +19°C° 0 mm 2 mps 744 mmHg 70%
20:00 +17°C° 0 mm 2 mps 744 mmHg 77%
21:00 +16°C° 0.1 mm 2 mps 745 mmHg 81%
22:00 +15°C° 0.1 mm 2 mps 745 mmHg 85%
23:00 +15°C° 0.1 mm 2 mps 745 mmHg 89%

4 August, Wednesday

Time Temperature Precipitation Wind Pressure Humidity
00:00 +14°C° 0 mm 2 mps 745 mmHg 91%
01:00 +13°C° 0 mm 2 mps 746 mmHg 93%
02:00 +12°C° 0 mm 2 mps 746 mmHg 95%
03:00 +12°C° 0 mm 2 mps 747 mmHg 95%
04:00 +12°C° 0 mm 2 mps 747 mmHg 95%
05:00 +13°C° 0 mm 2 mps 747 mmHg 96%
06:00 +14°C° 0 mm 2 mps 748 mmHg 86%
07:00 +16°C° 0 mm 3 mps 748 mmHg 77%
08:00 +18°C° 0 mm 3 mps 748 mmHg 68%
09:00 +19°C° 0 mm 3 mps 748 mmHg 62%
10:00 +20°C° 0 mm 3 mps 748 mmHg 56%
11:00 +21°C° 0 mm 3 mps 749 mmHg 50%
12:00 +22°C° 0 mm 3 mps 749 mmHg 46%
13:00 +23°C° 0 mm 2 mps 749 mmHg 42%
14:00 +24°C° 0 mm 2 mps 749 mmHg 39%
15:00 +24°C° 0 mm 2 mps 749 mmHg 40%
16:00 +24°C° 0 mm 2 mps 749 mmHg 42%
17:00 +23°C° 0 mm 2 mps 749 mmHg 43%
18:00 +20°C° 0 mm 2 mps 749 mmHg 50%
19:00 +18°C° 0 mm 2 mps 750 mmHg 57%
20:00 +16°C° 0 mm 2 mps 750 mmHg 64%
21:00 +15°C° 0 mm 2 mps 750 mmHg 69%
22:00 +14°C° 0 mm 1 mps 750 mmHg 73%
23:00 +13°C° 0 mm 1 mps 751 mmHg 77%
Show more